Met observations

Date (UTC) Wind direction m/s kts. Vis. * Weather * Cloud * Temperature (°C) Dew point (°C) Air pressure (Hp)
18-04 15:06 9 17 VIS 8 km FEW 1400ft 10.4 6.6 1025.8
18-04 14:56 9 17 VIS 8 km BKN 1600ft 10.4 6.6 1025.8
18-04 14:46 9 17 VIS 8 km BKN 1600ft 10.4 6.7 1025.8
18-04 14:36 8 16 VIS 8 km BKN 1600ft 10.5 6.8 1025.7
18-04 14:26 9 17 VIS 8 km BKN 1600ft 10.4 6.5 1025.7
18-04 14:16 9 18 VIS 8 km BKN 1600ft 11.0 7.1 1025.6
18-04 14:06 8 16 VIS 8 km BKN 1600ft 10.9 7.1 1025.6
18-04 13:56 10 19 VIS 8 km BKN 1600ft 10.5 6.7 1025.5
18-04 13:46 10 20 VIS 8 km BKN 1600ft 10.4 6.7 1025.5
18-04 13:36 11 21 VIS 8 km BKN 1600ft 10.3 7.2 1025.4
18-04 13:26 10 19 VIS 8 km BKN 1600ft 10.0 7.0 1025.3
18-04 13:16 10 19 VIS 8 km BKN 1600ft 10.2 7.1 1025.3
18-04 13:06 9 17 VIS 8 km BKN 1600ft 10.1 7.2 1025.3
18-04 12:56 8 16 VIS 8 km BKN 1600ft 10.2 7.3 1025.2
18-04 12:46 9 18 VIS 8 km BKN 1600ft 10.1 7.1 1025.3
18-04 12:36 8 16 VIS 8 km BKN 1600ft 9.9 7.0 1025.3
18-04 12:26 8 16 VIS 8 km BKN 1600ft 10.0 7.0 1025.3
18-04 12:16 9 17 VIS 8 km BKN 1600ft 10.1 7.1 1025.3
18-04 12:06 7 14 VIS 8 km BKN 1600ft 10.2 6.9 1025.3
18-04 11:56 8 15 VIS 8 km BKN 1600ft 10.1 6.8 1025.3
18-04 11:46 8 15 VIS 8 km BKN 1600ft 10.4 6.9 1025.3
18-04 11:36 7 14 VIS 8 km BKN 1600ft 9.9 6.7 1025.2
18-04 11:26 8 15 VIS 8 km BKN 1600ft 10.0 6.7 1025.3
18-04 11:16 7 14 VIS 8 km BKN 1600ft 10.0 6.6 1025.2
18-04 11:06 7 14 VIS 8 km BKN 1600ft 10.1 6.5 1025.2
18-04 10:56 8 15 VIS 8 km BKN 1600ft 10.0 6.7 1025.2
18-04 10:46 6 12 VIS 8 km BKN 1600ft 10.1 6.8 1025.1
18-04 10:36 8 15 VIS 8 km BKN 1600ft 10.0 6.8 1025.0
18-04 10:26 7 14 VIS 8 km BKN 1600ft 9.8 6.7 1025.1
18-04 10:16 7 14 VIS 8 km BKN 1600ft 9.6 6.6 1025.0
18-04 10:06 7 14 VIS 8 km BKN 1600ft 9.5 6.4 1025.0
18-04 09:56 7 13 VIS 8 km BKN 1600ft 9.4 6.4 1025.0
18-04 09:46 6 12 VIS 8 km BKN 1600ft 9.4 6.3 1024.9
18-04 09:36 6 12 VIS 8 km BKN 1600ft 9.3 6.4 1024.9
18-04 09:26 7 14 VIS 8 km BKN 1600ft 9.3 6.6 1024.6
18-04 09:16 8 16 VIS 8 km BKN 1600ft 9.2 6.7 1024.6
18-04 09:06 7 13 VIS 8 km BKN 1600ft 9.0 6.5 1024.6
18-04 08:56 7 14 VIS 8 km BKN 1600ft 8.9 6.6 1024.7
18-04 08:46 8 15 VIS 8 km BKN 1600ft 8.9 6.5 1024.7
18-04 08:36 7 14 VIS 8 km BKN 1600ft 8.9 6.6 1024.7
18-04 08:26 7 14 VIS 8 km BKN 1600ft 9.1 6.8 1024.5
18-04 08:16 8 15 VIS 8 km BKN 1600ft 9.1 6.6 1024.5
18-04 08:06 8 16 VIS 8 km BKN 1600ft 9.0 6.4 1024.5
18-04 07:56 8 15 VIS 8 km BKN 1600ft 9.0 6.2 1024.4
18-04 07:46 7 13 VIS 8 km BKN 1600ft 9.0 6.2 1024.2
18-04 07:36 8 15 VIS 8 km BKN 1600ft 9.1 6.1 1024.3
18-04 07:26 7 13 VIS 8 km BKN 1600ft 9.0 6.0 1024.1
18-04 07:16 7 14 VIS 8 km BKN 1600ft 8.9 5.9 1024.1
18-04 07:06 7 14 VIS 8 km BKN 1600ft 9.0 5.7 1024.1
18-04 06:55 7 13 VIS 8 km BKN 1600ft 9.0 5.5 1024.1
18-04 06:46 6 12 VIS 8 km BKN 1600ft 9.1 5.3 1024.0
18-04 06:35 6 12 VIS 8 km BKN 1600ft 9.2 5.2 1024.0
18-04 06:26 8 15 VIS 8 km BKN 1600ft 9.1 4.8 1023.7
18-04 06:16 8 15 VIS 8 km BKN 1600ft 9.2 4.7 1023.8
18-04 06:06 7 14 VIS 8 km BKN 1600ft 9.0 4.7 1023.6
18-04 05:56 6 11 VIS 8 km BKN 1600ft 9.0 4.5 1023.7
18-04 05:46 7 13 VIS 8 km BKN 1600ft 9.0 4.0 1023.7
18-04 05:35 6 12 VIS 8 km BKN 1600ft 9.0 4.0 1023.6
18-04 05:26 6 11 VIS 8 km BKN 1600ft 9.0 3.9 1023.6
18-04 05:16 7 13 VIS 8 km BKN 1600ft 8.9 3.8 1023.5
18-04 05:06 7 13 VIS 8 km BKN 1600ft 9.0 3.7 1023.5
18-04 04:56 6 11 VIS 8 km BKN 1600ft 9.0 3.8 1023.4
18-04 04:46 6 12 VIS 8 km BKN 1600ft 9.0 3.9 1023.4
18-04 04:36 7 13 VIS 8 km BKN 1600ft 9.0 4.0 1023.3
18-04 04:26 7 13 VIS 8 km BKN 1600ft 9.0 4.0 1023.3
18-04 04:15 7 14 VIS 8 km BKN 1600ft 8.8 4.1 1023.3
18-04 04:06 5 10 VIS 8 km BKN 1600ft 8.8 4.3 1023.2
18-04 03:56 6 11 VIS 8 km BKN 1600ft 8.8 4.1 1023.3
18-04 03:46 7 13 VIS 8 km BKN 1600ft 8.6 3.9 1023.3
18-04 03:36 6 12 VIS 8 km BKN 1600ft 8.3 4.3 1023.4
18-04 03:26 5 10 VIS 8 km BKN 1600ft 8.2 4.5 1023.4
18-04 03:16 5 10 VIS 8 km BKN 1600ft 8.2 4.5 1023.4
18-04 03:06 6 11 VIS 8 km BKN 1600ft 8.1 4.3 1023.3
18-04 02:56 5 09 VIS 8 km BKN 1600ft 8.2 4.3 1023.3
18-04 02:46 6 12 VIS 8 km BKN 1600ft 8.2 4.1 1023.3
18-04 02:36 6 11 VIS 8 km BKN 1600ft 8.4 3.9 1023.3
18-04 02:26 7 14 VIS 8 km BKN 1600ft 8.4 3.7 1023.2
18-04 02:16 7 14 VIS 8 km BKN 1600ft 8.2 3.7 1023.3
18-04 02:06 6 11 VIS 8 km BKN 1600ft 8.2 3.8 1023.4
18-04 01:56 6 11 VIS 8 km BKN 1600ft 8.1 3.7 1023.4
18-04 01:46 6 11 VIS 8 km BKN 1600ft 7.7 4.4 1023.4
18-04 01:36 6 12 VIS 8 km BKN 1600ft 7.5 4.7 1023.4
18-04 01:26 5 10 VIS 8 km BKN 1600ft 7.3 5.1 1023.4
18-04 01:16 6 12 VIS 8 km BKN 1600ft 7.4 5.1 1023.4
18-04 01:06 5 10 VIS 8 km BKN 1600ft 7.2 5.5 1023.5
18-04 00:56 6 11 VIS 8 km BKN 1600ft 7.2 5.5 1023.6
18-04 00:46 5 10 VIS 8 km BKN 1600ft 7.1 5.4 1023.6
18-04 00:36 4 08 VIS 8 km BKN 1600ft 7.0 5.3 1023.6
18-04 00:26 5 09 VIS 8 km BKN 1600ft 7.1 5.3 1023.7
18-04 00:16 4 08 VIS 8 km BKN 1600ft 7.1 5.2 1023.7
18-04 00:06 5 09 VIS 8 km BKN 1600ft 7.0 5.3 1023.7
17-04 23:56 5 10 VIS 8 km BKN 1600ft 7.0 5.3 1023.8
17-04 23:46 6 11 VIS 8 km BKN 1600ft 7.1 5.2 1023.8
17-04 23:36 6 11 VIS 8 km BKN 1600ft 7.0 5.3 1023.8
17-04 23:26 4 08 VIS 8 km BKN 1600ft 7.0 5.3 1023.8
17-04 23:16 5 10 VIS 8 km BKN 1600ft 7.0 5.2 1023.8
17-04 23:06 6 11 VIS 8 km BKN 1600ft 7.0 5.3 1023.7
17-04 22:56 6 12 VIS 8 km BKN 1600ft 6.9 5.3 1023.7
17-04 22:46 5 10 VIS 8 km BKN 1600ft 6.9 5.2 1023.7
17-04 22:36 6 11 VIS 8 km BKN 1600ft 7.0 5.1 1023.7
17-04 22:26 7 13 VIS 8 km BKN 1600ft 7.0 5.0 1023.7
17-04 22:16 7 13 VIS 8 km BKN 1600ft 7.2 5.0 1023.7
17-04 22:06 6 12 VIS 8 km BKN 1600ft 7.1 4.9 1023.7
17-04 21:56 6 12 VIS 8 km BKN 1600ft 7.1 4.9 1023.7
17-04 21:46 6 12 VIS 8 km BKN 1600ft 7.1 4.9 1023.8
17-04 21:36 5 10 VIS 8 km BKN 1600ft 7.0 4.9 1023.8
17-04 21:26 6 11 VIS 8 km BKN 1600ft 7.0 4.9 1023.8
17-04 21:16 6 11 VIS 8 km BKN 1600ft 7.0 4.9 1023.7
17-04 21:06 8 15 VIS 8 km BKN 1600ft 7.0 4.8 1023.7
17-04 20:56 6 12 VIS 8 km BKN 1600ft 7.0 4.8 1023.6
17-04 20:46 7 13 VIS 8 km BKN 1600ft 7.0 4.8 1023.6
17-04 20:36 8 15 VIS 8 km BKN 1600ft 7.0 4.7 1023.6
17-04 20:26 8 15 VIS 8 km BKN 1600ft 6.9 4.7 1023.5
17-04 20:16 8 16 VIS 8 km BKN 1600ft 7.0 4.7 1023.4
17-04 20:06 7 13 VIS 8 km BKN 1600ft 7.0 4.6 1023.4
17-04 19:56 6 12 VIS 8 km BKN 1600ft 7.0 4.6 1023.4
17-04 19:46 7 13 VIS 8 km BKN 1600ft 7.1 4.6 1023.4
17-04 19:36 7 13 VIS 8 km BKN 1600ft 7.0 4.4 1023.4
17-04 19:26 8 15 VIS 8 km BKN 1600ft 7.0 4.4 1023.3
17-04 19:16 9 18 VIS 8 km BKN 1600ft 7.0 4.4 1023.3
17-04 19:06 8 15 VIS 8 km BKN 1600ft 7.0 4.4 1023.3
17-04 18:56 10 20 VIS 8 km BKN 1600ft 7.0 4.3 1023.3
17-04 18:46 10 19 VIS 8 km BKN 1600ft 6.9 4.2 1023.4
17-04 18:36 9 18 VIS 8 km BKN 1600ft 7.0 4.2 1023.3
17-04 18:26 8 16 VIS 8 km BKN 1600ft 7.0 4.1 1023.3
17-04 18:16 8 16 VIS 8 km BKN 1600ft 7.0 4.1 1023.3
17-04 18:06 10 20 VIS 8 km BKN 1600ft 7.0 4.1 1023.3
17-04 17:56 9 18 VIS 8 km BKN 1600ft 6.9 4.1 1023.3
17-04 17:46 8 16 VIS 8 km BKN 1600ft 6.9 4.0 1023.3
17-04 17:36 11 21 VIS 8 km BKN 1600ft 6.9 4.0 1023.3
17-04 17:26 10 20 VIS 8 km BKN 1600ft 6.9 4.0 1023.4
17-04 17:16 10 20 VIS 8 km BKN 1600ft 6.9 4.0 1023.6
17-04 17:06 10 20 VIS 8 km BKN 1200ft 6.9 3.9 1023.5
17-04 16:56 9 17 VIS 8 km BKN 1200ft 6.9 3.8 1023.5
17-04 16:46 9 17 VIS 8 km BKN 1200ft 6.9 3.7 1023.6
17-04 16:36 11 21 VIS 8 km BKN 1200ft 6.9 3.6 1023.6
17-04 16:26 12 23 VIS 8 km BKN 1200ft 6.8 3.6 1023.6
17-04 16:16 10 20 VIS 8 km BKN 1200ft 6.9 3.7 1023.7
17-04 16:06 8 16 VIS 8 km BKN 1200ft 6.8 3.5 1023.7
17-04 15:56 10 20 VIS 8 km BKN 1200ft 6.7 3.4 1023.7
17-04 15:46 11 22 VIS 8 km BKN 1200ft 6.7 3.4 1023.6
17-04 15:36 9 17 VIS 8 km BKN 1200ft 6.7 3.3 1024.0
17-04 15:26 10 20 VIS 8 km BKN 1200ft 6.7 3.2 1024.0
17-04 15:16 8 16 VIS 8 km BKN 1200ft 6.6 3.4 1024.1

Met data is updated every half hour and is for information only.
* Visibility, weather and cloud values are updated during the airport’s service hours only.
Flight planning documentation is available on opmet.dmi.dk.
For meteorological abbreviations, click here